Terminal Aerodrome Forecast
Issued by NWS Grand Forks, ND

Home | Current Version | Previous Version | Graphics & Text | Print | Product List | Glossary On
Versions: 1 2 3 4 5 6 7 8 9 10 11 12 13 14 15 16 17 18 19 20 21 22 23
000
FTUS43 KFGF 250500
TAFGFK
TAF
KGFK 250520Z 2506/2606 36009KT P6SM BKN080
     FM251000 02007KT P6SM BKN050
     FM251500 VRB03KT P6SM BKN100
     FM251800 19007KT P6SM BKN250=

USA.gov is the U.S. government's official web portal to all federal, state and local government web resources and services.